TimeCST,TemperatureF,Dew PointF,Humidity,Sea Level PressureIn,VisibilityMPH,Wind Direction,Wind SpeedMPH,Gust SpeedMPH,PrecipitationIn,Events,Conditions,WindDirDegrees,DateUTC
12:13 AM,1.4,-4.0,78,29.72,4.0,North,6.9,24.2,N/A,Snow,Light Snow,350,2013-02-19 06:13:00
12:33 AM,1.4,-2.2,85,29.73,3.0,NNW,11.5,16.1,N/A,Snow,Light Snow,330,2013-02-19 06:33:00
12:52 AM,1.4,-4.0,78,29.74,4.0,NNW,9.2,24.2,N/A,Snow,Light Snow,340,2013-02-19 06:52:00
1:13 AM,1.4,-5.8,72,29.76,5.0,NW,12.7,24.2,N/A,Snow,Light Snow,320,2013-02-19 07:13:00
1:33 AM,-0.4,-5.8,78,29.77,4.0,NNW,16.1,27.6,N/A,Snow,Light Snow,330,2013-02-19 07:33:00
1:52 AM,-0.4,-7.6,72,29.78,3.0,NNW,11.5,20.7,N/A,Snow,Light Snow,330,2013-02-19 07:52:00
2:13 AM,-2.2,-7.6,78,29.78,5.0,NNW,11.5,23.0,N/A,Snow,Light Snow,330,2013-02-19 08:13:00
2:33 AM,-2.2,-9.4,71,29.79,5.0,NNW,13.8,24.2,N/A,Snow,Light Snow,330,2013-02-19 08:33:00
2:52 AM,-4.0,-9.4,78,29.79,7.0,NNW,11.5,24.2,N/A,Snow,Light Snow,340,2013-02-19 08:52:00
3:13 AM,-4.0,-9.4,78,29.80,5.0,NNW,13.8,21.9,N/A,Snow,Light Snow,330,2013-02-19 09:13:00
3:33 AM,-5.8,-9.4,84,29.81,5.0,NNW,12.7,24.2,N/A,Snow,Light Snow,340,2013-02-19 09:33:00
3:52 AM,-5.8,-11.2,77,29.81,5.0,NW,15.0,23.0,N/A,Snow,Light Snow,320,2013-02-19 09:52:00
4:13 AM,-5.8,-11.2,77,29.82,5.0,NNW,8.1,25.3,N/A,Snow,Light Snow,340,2013-02-19 10:13:00
4:33 AM,-7.6,-13.0,77,29.82,5.0,NNW,9.2,24.2,N/A,Snow,Light Snow,330,2013-02-19 10:33:00
4:52 AM,-7.6,-13.0,77,29.82,5.0,NNW,16.1,24.2,N/A,Snow,Light Snow,330,2013-02-19 10:52:00
5:13 AM,-7.6,-14.8,71,29.84,5.0,NNW,10.4,19.6,N/A,Snow,Light Snow,330,2013-02-19 11:13:00
5:33 AM,-7.6,-14.8,71,29.84,7.0,NNW,10.4,21.9,N/A,Snow,Light Snow,330,2013-02-19 11:33:00
5:52 AM,-7.6,-14.8,71,29.85,7.0,NNW,12.7,21.9,N/A,,Overcast,340,2013-02-19 11:52:00
6:12 AM,-7.6,-14.8,71,29.86,7.0,NNW,11.5,17.3,N/A,,Overcast,330,2013-02-19 12:12:00
6:33 AM,-9.4,-14.8,77,29.87,7.0,NNW,12.7,23.0,N/A,,Overcast,330,2013-02-19 12:33:00
6:52 AM,-9.4,-14.8,77,29.87,10.0,NNW,10.4,20.7,N/A,,Overcast,330,2013-02-19 12:52:00
7:12 AM,-9.4,-14.8,77,29.89,10.0,NNW,13.8,21.9,N/A,,Mostly Cloudy,330,2013-02-19 13:12:00
7:33 AM,-9.4,-14.8,77,29.89,10.0,NNW,12.7,19.6,N/A,,Clear,330,2013-02-19 13:33:00
7:52 AM,-9.4,-14.8,77,29.90,10.0,NNW,10.4,17.3,N/A,,Clear,330,2013-02-19 13:52:00
8:13 AM,-9.4,-14.8,77,29.91,10.0,NNW,8.1,-,N/A,,Clear,340,2013-02-19 14:13:00
8:33 AM,-9.4,-14.8,77,29.92,10.0,NNW,11.5,17.3,N/A,,Scattered Clouds,330,2013-02-19 14:33:00
8:52 AM,-7.6,-14.8,71,29.93,10.0,NW,13.8,20.7,N/A,,Scattered Clouds,320,2013-02-19 14:52:00
9:13 AM,-7.6,-14.8,71,29.93,10.0,NNW,15.0,28.8,N/A,,Scattered Clouds,330,2013-02-19 15:13:00
9:33 AM,-7.6,-14.8,71,29.94,7.0,NNW,9.2,26.5,N/A,,Scattered Clouds,340,2013-02-19 15:33:00
9:52 AM,-5.8,-14.8,65,29.95,7.0,NNW,10.4,23.0,N/A,,Scattered Clouds,330,2013-02-19 15:52:00
10:13 AM,-5.8,-14.8,65,29.95,7.0,NNW,9.2,23.0,N/A,,Mostly Cloudy,330,2013-02-19 16:13:00
10:33 AM,-4.0,-14.8,60,29.96,10.0,NNW,12.7,21.9,N/A,,Scattered Clouds,340,2013-02-19 16:33:00
10:52 AM,-4.0,-14.8,60,29.97,7.0,NNW,13.8,25.3,N/A,,Scattered Clouds,330,2013-02-19 16:52:00
11:13 AM,-2.2,-13.0,60,29.98,7.0,NNW,12.7,24.2,N/A,,Scattered Clouds,330,2013-02-19 17:13:00
11:33 AM,-2.2,-13.0,60,29.99,7.0,NNW,15.0,25.3,N/A,,Mostly Cloudy,330,2013-02-19 17:33:00
11:52 AM,-2.2,-13.0,60,29.99,7.0,NNW,15.0,25.3,N/A,,Mostly Cloudy,330,2013-02-19 17:52:00
12:13 PM,-0.4,-11.2,60,29.99,10.0,NW,15.0,24.2,N/A,,Mostly Cloudy,320,2013-02-19 18:13:00
12:33 PM,-0.4,-11.2,60,29.99,10.0,NW,15.0,26.5,N/A,,Scattered Clouds,310,2013-02-19 18:33:00
12:53 PM,-0.4,-11.2,60,29.99,10.0,NW,16.1,25.3,N/A,,Scattered Clouds,310,2013-02-19 18:53:00
1:13 PM,1.4,-9.4,61,30.00,10.0,NNW,12.7,26.5,N/A,,Scattered Clouds,330,2013-02-19 19:13:00
1:33 PM,1.4,-9.4,61,30.01,7.0,NNW,13.8,28.8,N/A,,Scattered Clouds,340,2013-02-19 19:33:00
1:52 PM,3.2,-9.4,56,30.01,10.0,NNW,12.7,24.2,N/A,,Clear,330,2013-02-19 19:52:00
2:13 PM,3.2,-9.4,56,30.01,10.0,NW,16.1,26.5,N/A,,Clear,320,2013-02-19 20:13:00
2:33 PM,3.2,-7.6,61,30.02,10.0,NNW,16.1,24.2,N/A,,Scattered Clouds,330,2013-02-19 20:33:00
2:52 PM,3.2,-7.6,61,30.03,10.0,NNW,11.5,29.9,N/A,,Scattered Clouds,330,2013-02-19 20:52:00
3:13 PM,3.2,-7.6,61,30.05,10.0,NNW,13.8,23.0,N/A,,Scattered Clouds,330,2013-02-19 21:13:00
3:33 PM,3.2,-7.6,61,30.06,10.0,NNW,17.3,24.2,N/A,,Scattered Clouds,330,2013-02-19 21:33:00
3:52 PM,3.2,-7.6,61,30.07,10.0,NNW,15.0,24.2,N/A,,Scattered Clouds,330,2013-02-19 21:52:00
4:13 PM,3.2,-7.6,61,30.09,10.0,NNW,16.1,29.9,N/A,,Mostly Cloudy,340,2013-02-19 22:13:00
4:33 PM,3.2,-5.8,66,30.10,10.0,NNW,13.8,24.2,N/A,,Mostly Cloudy,330,2013-02-19 22:33:00
4:53 PM,3.2,-5.8,66,30.11,10.0,NNW,16.1,23.0,N/A,,Mostly Cloudy,330,2013-02-19 22:53:00
5:12 PM,3.2,-5.8,66,30.12,10.0,NNW,6.9,19.6,N/A,,Mostly Cloudy,330,2013-02-19 23:12:00
6:32 PM,1.4,-5.8,72,30.17,10.0,NNW,11.5,24.2,N/A,,Overcast,330,2013-02-20 00:32:00
6:53 PM,1.4,-5.8,72,30.17,10.0,NNW,11.5,19.6,N/A,,Overcast,330,2013-02-20 00:53:00
7:13 PM,1.4,-5.8,72,30.18,10.0,NNW,15.0,20.7,N/A,,Overcast,330,2013-02-20 01:13:00
7:32 PM,1.4,-5.8,72,30.19,10.0,NNW,10.4,20.7,N/A,,Overcast,330,2013-02-20 01:32:00
7:53 PM,1.4,-5.8,72,30.20,10.0,NNW,12.7,20.7,N/A,,Overcast,330,2013-02-20 01:53:00
8:12 PM,1.4,-5.8,72,30.20,10.0,NW,11.5,18.4,N/A,,Overcast,320,2013-02-20 02:12:00
8:33 PM,-0.4,-5.8,78,30.21,10.0,NNW,9.2,16.1,N/A,,Overcast,340,2013-02-20 02:33:00
8:53 PM,-0.4,-5.8,78,30.22,10.0,NNW,8.1,16.1,N/A,,Overcast,330,2013-02-20 02:53:00
9:13 PM,-0.4,-7.6,72,30.24,10.0,NW,10.4,16.1,N/A,,Overcast,320,2013-02-20 03:13:00
9:33 PM,-0.4,-7.6,72,30.24,10.0,NNW,6.9,-,N/A,,Overcast,340,2013-02-20 03:33:00
9:52 PM,-0.4,-7.6,72,30.25,10.0,North,5.8,-,N/A,,Overcast,350,2013-02-20 03:52:00
10:13 PM,-2.2,-7.6,78,30.25,10.0,NNW,6.9,-,N/A,,Overcast,340,2013-02-20 04:13:00
10:33 PM,-2.2,-7.6,78,30.26,10.0,NW,5.8,-,N/A,,Mostly Cloudy,320,2013-02-20 04:33:00
10:52 PM,-4.0,-7.6,85,30.27,10.0,NNW,6.9,-,N/A,,Scattered Clouds,330,2013-02-20 04:52:00
11:13 PM,-4.0,-9.4,78,30.28,10.0,NW,6.9,-,N/A,,Clear,320,2013-02-20 05:13:00
11:33 PM,-5.8,-9.4,84,30.28,10.0,NW,5.8,-,N/A,,Clear,320,2013-02-20 05:33:00
11:52 PM,-5.8,-9.4,84,30.29,10.0,NW,9.2,-,N/A,,Clear,320,2013-02-20 05:52:00